Clinton, OK

5:59 PM CDT on May 24, 2017 (GMT -0500)
Clinton Municipal

Weather History for KCLK - November, 2012

Change the Weather History Date:

Saturday, November 3, 2012

  Actual Average (KCSM) Record (KCSM)
Temperature  
Mean Temperature 52 °F -  
Max Temperature 64 °F 61 °F 91 °F (2005)
Min Temperature 41 °F 42 °F 30 °F (2011)
Degree Days  
Heating Degree Days 12    
Growing Degree Days 2 (Base 50)    
Moisture  
Dew Point 32 °F    
Average Humidity 50    
Maximum Humidity 70    
Minimum Humidity 26    
Precipitation  
Precipitation 0.00 in - - ()
Sea Level Pressure  
Sea Level Pressure 30.13 in    
Wind  
Wind Speed 10 mph (NNE)    
Max Wind Speed 16 mph    
Max Gust Speed 18 mph    
Visibility 10 miles    
Events      
Averages and records for this station are not official NWS values.
T = Trace of Precipitation, MM = Missing Value Source: NWS Daily Summary

Daily Weather History Graph

Daily Weather History Graph

Search for Another Location

Airport or City:

Trip Planner

Search our weather history database for the weather conditions in past years. The results will help you decide how hot, cold, wet, or windy it might be!

Date:

Astronomy

Nov. 03, 2012 Rise Set
Actual Time 7:59 AM CDT 6:38 PM CDT
Civil Twilight 7:33 AM CDT 7:04 PM CDT
Nautical Twilight 7:03 AM CDT 7:34 PM CDT
Astronomical Twilight 6:33 AM CDT 8:04 PM CDT
Moon 10:23 PM CDT (11/3) 12:01 PM CDT (11/3)
Length of Visible Light 11h 31m
Length of Day
10h 38m
Waning Gibbous, 80% of the Moon is Illuminated
Nov 3
Waning Gibbous
Nov 6
Last Quarter
Nov 13
New
Nov 20
First Quarter
Nov 28
Full

Hourly Weather History & Observations

Time (CDT) Temp. Windchill Dew Point Humidity Pressure Visibility Wind Dir Wind Speed Gust Speed Precip Events Conditions
12:15 AM 55.4 °F - 37.4 °F 51% 29.99 in 10.0 mi North 10.4 mph - N/A   Clear
12:35 AM 55.4 °F - 37.4 °F 51% 30.00 in 10.0 mi North 9.2 mph - N/A   Clear
12:55 AM 55.4 °F - 37.4 °F 51% 30.01 in 10.0 mi North 9.2 mph 16.1 mph N/A   Clear
1:15 AM 53.6 °F - 37.4 °F 54% 30.02 in 10.0 mi North 9.2 mph - N/A   Clear
1:35 AM 53.6 °F - 37.4 °F 54% 30.02 in 10.0 mi North 10.4 mph - N/A   Clear
1:55 AM 53.6 °F - 37.4 °F 54% 30.02 in 10.0 mi North 10.4 mph - N/A   Clear
2:15 AM 51.8 °F - 37.4 °F 58% 30.02 in 10.0 mi North 8.1 mph - N/A   Clear
2:35 AM 51.8 °F - 37.4 °F 58% 30.03 in 10.0 mi North 12.7 mph - N/A   Clear
2:55 AM 51.8 °F - 37.4 °F 58% 30.04 in 10.0 mi North 10.4 mph - N/A   Clear
3:15 AM 50.0 °F - 35.6 °F 58% 30.04 in 10.0 mi North 11.5 mph - N/A   Clear
3:35 AM 50.0 °F - 35.6 °F 58% 30.06 in 10.0 mi North 9.2 mph - N/A   Clear
3:55 AM 48.2 °F - 35.6 °F 62% 30.06 in 10.0 mi North 9.2 mph - N/A   Clear
4:15 AM 46.4 °F 41.1 °F 35.6 °F 66% 30.06 in 10.0 mi North 11.5 mph - N/A   Clear
4:35 AM 46.4 °F 41.5 °F 35.6 °F 66% 30.07 in 10.0 mi North 10.4 mph - N/A   Clear
4:55 AM 46.4 °F 41.5 °F 33.8 °F 62% 30.08 in 10.0 mi North 10.4 mph - N/A   Clear
5:15 AM 44.6 °F 38.8 °F 33.8 °F 66% 30.08 in 10.0 mi North 11.5 mph - N/A   Clear
5:35 AM 44.6 °F 39.2 °F 33.8 °F 66% 30.09 in 10.0 mi North 10.4 mph 18.4 mph N/A   Clear
5:55 AM 44.6 °F 39.2 °F 33.8 °F 66% 30.10 in 10.0 mi North 10.4 mph - N/A   Clear
6:15 AM 44.6 °F 38.4 °F 33.8 °F 66% 30.11 in 10.0 mi North 12.7 mph - N/A   Clear
6:35 AM 42.8 °F 37.0 °F 33.8 °F 70% 30.12 in 10.0 mi North 10.4 mph - N/A   Clear
6:55 AM 42.8 °F 36.6 °F 33.8 °F 70% 30.12 in 10.0 mi North 11.5 mph - N/A   Clear
7:15 AM 42.8 °F 37.0 °F 32.0 °F 66% 30.14 in 10.0 mi North 10.4 mph - N/A   Clear
7:35 AM 42.8 °F 37.0 °F 32.0 °F 66% 30.14 in 10.0 mi North 10.4 mph - N/A   Clear
7:55 AM 42.8 °F 37.0 °F 32.0 °F 66% 30.15 in 10.0 mi North 10.4 mph - N/A   Clear
8:15 AM 41.0 °F 36.4 °F 32.0 °F 70% 30.15 in 7.0 mi North 6.9 mph - N/A   Clear
8:35 AM 41.0 °F 35.8 °F 32.0 °F 70% 30.17 in 7.0 mi North 8.1 mph - N/A   Clear
8:55 AM 42.8 °F 37.0 °F 32.0 °F 66% 30.17 in 10.0 mi North 10.4 mph - N/A   Clear
9:15 AM 44.6 °F 38.4 °F 32.0 °F 61% 30.18 in 10.0 mi North 12.7 mph - N/A   Clear
9:35 AM 44.6 °F 37.4 °F 32.0 °F 61% 30.19 in 10.0 mi North 16.1 mph - N/A   Clear
9:55 AM 46.4 °F 40.1 °F 32.0 °F 57% 30.19 in 10.0 mi North 15.0 mph 18.4 mph N/A   Clear
10:35 AM 48.2 °F - 32.0 °F 54% 30.20 in 10.0 mi NNE 12.7 mph - N/A   Clear
10:55 AM 51.8 °F - 32.0 °F 47% 30.20 in 10.0 mi North 10.4 mph - N/A   Clear
11:15 AM 51.8 °F - 32.0 °F 47% 30.20 in 10.0 mi NNE 11.5 mph - N/A   Clear
11:35 AM 53.6 °F - 32.0 °F 44% 30.20 in 10.0 mi NNE 16.1 mph - N/A   Clear
11:55 AM 53.6 °F - 32.0 °F 44% 30.20 in 10.0 mi NNE 13.8 mph - N/A   Clear
12:15 PM 55.4 °F - 32.0 °F 41% 30.20 in 10.0 mi NE 9.2 mph 18.4 mph N/A   Clear
12:35 PM 55.4 °F - 32.0 °F 41% 30.19 in 10.0 mi North 10.4 mph - N/A   Clear
1:15 PM 59.0 °F - 32.0 °F 36% 30.18 in 10.0 mi NNE 8.1 mph - N/A   Clear
1:35 PM 59.0 °F - 32.0 °F 36% 30.17 in 10.0 mi NNE 10.4 mph - N/A   Clear
1:55 PM 60.8 °F - 30.2 °F 31% 30.16 in 10.0 mi NE 13.8 mph - N/A   Clear
2:15 PM 60.8 °F - 30.2 °F 31% 30.15 in 10.0 mi NNE 11.5 mph 17.3 mph N/A   Clear
2:35 PM 62.6 °F - 30.2 °F 30% 30.15 in 10.0 mi NE 12.7 mph 18.4 mph N/A   Clear
2:55 PM 62.6 °F - 28.4 °F 27% 30.14 in 10.0 mi NE 12.7 mph - N/A   Clear
3:15 PM 62.6 °F - 28.4 °F 27% 30.14 in 10.0 mi NE 9.2 mph 17.3 mph N/A   Clear
3:35 PM 62.6 °F - 28.4 °F 27% 30.14 in 10.0 mi NNE 9.2 mph - N/A   Clear
3:55 PM 64.4 °F - 28.4 °F 26% 30.14 in 10.0 mi NE 11.5 mph - N/A   Clear
4:15 PM 64.4 °F - 28.4 °F 26% 30.14 in 10.0 mi NE 10.4 mph 13.8 mph N/A   Clear
4:35 PM 64.4 °F - 28.4 °F 26% 30.14 in 10.0 mi NE 12.7 mph - N/A   Clear
4:55 PM 62.6 °F - 28.4 °F 27% 30.14 in 10.0 mi NE 12.7 mph - N/A   Clear
5:15 PM 62.6 °F - 28.4 °F 27% 30.14 in 10.0 mi ENE 11.5 mph - N/A   Clear
5:35 PM 62.6 °F - 28.4 °F 27% 30.14 in 10.0 mi NE 10.4 mph - N/A   Clear
5:55 PM 59.0 °F - 28.4 °F 31% 30.15 in 10.0 mi NE 9.2 mph - N/A   Clear
6:15 PM 59.0 °F - 28.4 °F 31% 30.15 in 10.0 mi NE 8.1 mph - N/A   Clear
6:35 PM 57.2 °F - 28.4 °F 33% 30.15 in 10.0 mi NE 6.9 mph - N/A   Clear
6:55 PM 55.4 °F - 28.4 °F 36% 30.15 in 10.0 mi ENE 5.8 mph - N/A   Clear
7:15 PM 53.6 °F - 30.2 °F 41% 30.16 in 10.0 mi NE 6.9 mph - N/A   Clear
7:35 PM 51.8 °F - 30.2 °F 44% 30.16 in 10.0 mi NE 5.8 mph - N/A   Clear
7:55 PM 50.0 °F - 30.2 °F 47% 30.17 in 10.0 mi NE 8.1 mph - N/A   Clear
8:15 PM 50.0 °F - 30.2 °F 47% 30.17 in 10.0 mi NNE 6.9 mph - N/A   Clear
8:35 PM 50.0 °F - 30.2 °F 47% 30.17 in 10.0 mi NNE 5.8 mph - N/A   Clear
8:55 PM 50.0 °F - 30.2 °F 47% 30.18 in 10.0 mi Calm Calm - N/A   Clear
9:35 PM 48.2 °F - 30.2 °F 50% 30.18 in 10.0 mi North 5.8 mph - N/A   Clear
9:55 PM 46.4 °F 43.5 °F 32.0 °F 57% 30.18 in 10.0 mi North 5.8 mph - N/A   Clear
10:15 PM 46.4 °F 43.5 °F 32.0 °F 57% 30.18 in 10.0 mi North 5.8 mph - N/A   Clear
10:35 PM 44.6 °F 40.7 °F 30.2 °F 57% 30.18 in 10.0 mi NNE 6.9 mph - N/A   Clear
10:55 PM 46.4 °F 43.5 °F 32.0 °F 57% 30.18 in 10.0 mi NNE 5.8 mph - N/A   Clear
11:15 PM 44.6 °F - 32.0 °F 61% 30.18 in 10.0 mi Calm Calm - N/A   Clear
11:35 PM 44.6 °F 41.4 °F 32.0 °F 61% 30.18 in 10.0 mi NNE 5.8 mph - N/A   Clear
11:55 PM 42.8 °F 40.1 °F 32.0 °F 66% 30.19 in 10.0 mi North 4.6 mph - N/A   Clear